When you browse on this site, cookies collect data to enhance your experience and personalize the content and advertising you see.
Visit our Privacy Policy to learn more. By continuing to use the site, you agree to this use of cookies and data.
  • In France
  • List of Countries
  • For 7 days
  • Water Temperature
  • Weather Map
  • Weather Widgets
  • user-avatar
    Login

    Hourly Weather Garmisch-Partenkirchen

    Today, 27 February, Thursday

    Time Temperature Precipitation Wind Pressure Humidity
    00:00 -5°C° 0.4 mm 2 mps 668 mmHg 92%
    01:00 -6°C° 0 mm 2 mps 668 mmHg 92%
    02:00 -6°C° 0.1 mm 2 mps 668 mmHg 92%
    03:00 -6°C° 0.1 mm 2 mps 668 mmHg 92%
    04:00 -6°C° 0.1 mm 2 mps 668 mmHg 92%
    05:00 -7°C° 0.1 mm 2 mps 668 mmHg 91%
    06:00 -7°C° 0.1 mm 2 mps 668 mmHg 91%
    07:00 -7°C° 0.1 mm 2 mps 669 mmHg 90%
    08:00 -5°C° 0 mm 2 mps 668 mmHg 84%
    09:00 -4°C° 0 mm 2 mps 668 mmHg 78%
    10:00 -2°C° 0 mm 2 mps 668 mmHg 71%
    11:00 -1°C° 0 mm 2 mps 667 mmHg 68%
    12:00 -1°C° 0 mm 2 mps 666 mmHg 64%
    13:00 +1°C° 0 mm 2 mps 665 mmHg 60%
    14:00 0°C° 0.3 mm 3 mps 664 mmHg 66%
    15:00 -1°C° 0.3 mm 3 mps 663 mmHg 71%
    16:00 -1°C° 0.3 mm 3 mps 662 mmHg 76%
    17:00 -2°C° 0.3 mm 3 mps 662 mmHg 77%
    18:00 -4°C° 0.3 mm 4 mps 661 mmHg 79%
    19:00 -4°C° 0.3 mm 4 mps 660 mmHg 80%
    20:00 -5°C° 0.7 mm 5 mps 661 mmHg 84%
    21:00 -5°C° 0.7 mm 5 mps 661 mmHg 87%
    22:00 -5°C° 0.7 mm 6 mps 662 mmHg 90%
    23:00 -5°C° 1.1 mm 6 mps 663 mmHg 91%

    Tomorrow, 28 February, Friday

    Time Temperature Precipitation Wind Pressure Humidity
    00:00 -5°C° 1.1 mm 6 mps 665 mmHg 92%
    01:00 -5°C° 1.1 mm 6 mps 666 mmHg 93%
    02:00 -6°C° 1.1 mm 5 mps 667 mmHg 94%
    03:00 -6°C° 1.1 mm 5 mps 668 mmHg 94%
    04:00 -5°C° 1.1 mm 4 mps 669 mmHg 95%
    05:00 -5°C° 0.9 mm 4 mps 670 mmHg 94%
    06:00 -7°C° 0.9 mm 4 mps 671 mmHg 93%
    07:00 -7°C° 0.9 mm 4 mps 672 mmHg 93%
    08:00 -5°C° 0.1 mm 4 mps 673 mmHg 88%
    09:00 -5°C° 0.1 mm 4 mps 674 mmHg 84%
    10:00 -4°C° 0.1 mm 3 mps 675 mmHg 79%
    11:00 -2°C° 0 mm 3 mps 675 mmHg 76%
    12:00 -1°C° 0 mm 2 mps 675 mmHg 72%
    13:00 +2°C° 0 mm 1 mps 675 mmHg 69%
    14:00 +2°C° 0 mm 1 mps 675 mmHg 68%
    15:00 +2°C° 0 mm 1 mps 674 mmHg 68%
    16:00 +2°C° 0 mm 1 mps 674 mmHg 68%
    17:00 +1°C° 0 mm 1 mps 674 mmHg 71%
    18:00 -1°C° 0 mm 1 mps 673 mmHg 74%
    19:00 -5°C° 0 mm 2 mps 673 mmHg 77%
    20:00 -5°C° 0 mm 2 mps 673 mmHg 76%
    21:00 -5°C° 0 mm 2 mps 673 mmHg 74%
    22:00 -5°C° 0 mm 2 mps 672 mmHg 72%
    23:00 -5°C° 0 mm 2 mps 672 mmHg 71%

    Day after tomorrow, 29 February, Saturday

    Time Temperature Precipitation Wind Pressure Humidity
    00:00 -6°C° 0 mm 3 mps 672 mmHg 71%
    01:00 -5°C° 0 mm 3 mps 672 mmHg 70%
    02:00 -5°C° 0 mm 3 mps 671 mmHg 71%
    03:00 -5°C° 0 mm 3 mps 671 mmHg 73%
    04:00 -5°C° 0 mm 3 mps 670 mmHg 74%
    05:00 -5°C° 0 mm 3 mps 670 mmHg 74%
    06:00 -5°C° 0 mm 3 mps 669 mmHg 75%
    07:00 -5°C° 0 mm 3 mps 669 mmHg 75%
    08:00 -2°C° 0 mm 3 mps 669 mmHg 76%
    09:00 -1°C° 0 mm 3 mps 668 mmHg 77%
    10:00 +1°C° 0 mm 3 mps 668 mmHg 78%
    11:00 +2°C° 0 mm 3 mps 667 mmHg 80%
    12:00 +2°C° 0 mm 3 mps 667 mmHg 82%
    13:00 +3°C° 0 mm 3 mps 666 mmHg 84%
    14:00 +3°C° 0 mm 3 mps 666 mmHg 84%
    15:00 +4°C° 0 mm 2 mps 666 mmHg 84%
    16:00 +4°C° 0 mm 2 mps 665 mmHg 84%
    17:00 +2°C° 0 mm 2 mps 665 mmHg 83%
    18:00 -1°C° 0 mm 3 mps 665 mmHg 82%
    19:00 -2°C° 0 mm 3 mps 665 mmHg 80%
    20:00 -2°C° 0 mm 3 mps 665 mmHg 81%
    21:00 -2°C° 0 mm 2 mps 666 mmHg 83%
    22:00 -2°C° 0 mm 2 mps 666 mmHg 84%
    23:00 -2°C° 0.1 mm 2 mps 666 mmHg 86%

    1 March, Sunday

    Time Temperature Precipitation Wind Pressure Humidity
    00:00 -1°C° 0.1 mm 1 mps 666 mmHg 87%
    01:00 -1°C° 0.1 mm 1 mps 666 mmHg 89%
    02:00 -1°C° 0.1 mm 1 mps 666 mmHg 90%
    03:00 -1°C° 0.1 mm 1 mps 665 mmHg 91%
    04:00 -1°C° 0.1 mm 1 mps 665 mmHg 92%
    05:00 -1°C° 0.1 mm 1 mps 665 mmHg 92%
    06:00 -1°C° 0.1 mm 1 mps 665 mmHg 91%
    07:00 -2°C° 0.1 mm 1 mps 664 mmHg 91%
    08:00 0°C° 0 mm 1 mps 665 mmHg 90%
    09:00 +2°C° 0 mm 1 mps 665 mmHg 89%
    10:00 +3°C° 0 mm 1 mps 665 mmHg 88%
    11:00 +4°C° 0 mm 1 mps 665 mmHg 88%
    12:00 +5°C° 0 mm 1 mps 664 mmHg 88%
    13:00 +6°C° 0 mm 1 mps 664 mmHg 87%
    14:00 +6°C° 0 mm 1 mps 663 mmHg 88%
    15:00 +6°C° 0 mm 1 mps 663 mmHg 89%
    16:00 +5°C° 0 mm 0 mps 662 mmHg 90%
    17:00 +5°C° 0 mm 1 mps 662 mmHg 91%
    18:00 +4°C° 0 mm 1 mps 662 mmHg 92%
    19:00 +3°C° 0 mm 1 mps 661 mmHg 93%
    20:00 +2°C° 0 mm 1 mps 661 mmHg 91%
    21:00 -1°C° 0 mm 2 mps 660 mmHg 89%
    22:00 -1°C° 0 mm 2 mps 660 mmHg 87%
    23:00 -1°C° 0.1 mm 2 mps 660 mmHg 88%

    2 March, Monday

    Time Temperature Precipitation Wind Pressure Humidity
    00:00 -1°C° 0.1 mm 3 mps 661 mmHg 89%
    01:00 -1°C° 0.1 mm 3 mps 661 mmHg 91%
    02:00 -2°C° 0.2 mm 2 mps 661 mmHg 92%
    03:00 -2°C° 0.2 mm 2 mps 662 mmHg 93%
    04:00 0°C° 0.2 mm 1 mps 662 mmHg 95%
    05:00 -1°C° 0.1 mm 1 mps 662 mmHg 95%
    06:00 -1°C° 0.1 mm 1 mps 662 mmHg 95%
    07:00 -2°C° 0.1 mm 0 mps 662 mmHg 94%
    08:00 -1°C° 0 mm 0 mps 662 mmHg 91%
    09:00 0°C° 0 mm 0 mps 662 mmHg 87%
    10:00 +2°C° 0 mm 0 mps 662 mmHg 83%
    11:00 +4°C° 0 mm 1 mps 662 mmHg 82%
    12:00 +5°C° 0 mm 1 mps 662 mmHg 82%
    13:00 +5°C° 0 mm 1 mps 661 mmHg 81%
    14:00 +6°C° 0 mm 1 mps 661 mmHg 82%
    15:00 +6°C° 0 mm 1 mps 660 mmHg 83%
    16:00 +6°C° 0 mm 1 mps 660 mmHg 83%
    17:00 +4°C° 0 mm 1 mps 660 mmHg 84%
    18:00 +3°C° 0 mm 1 mps 660 mmHg 85%
    19:00 +1°C° 0 mm 1 mps 660 mmHg 85%
    20:00 +1°C° 0 mm 1 mps 661 mmHg 85%
    21:00 +1°C° 0 mm 1 mps 661 mmHg 85%
    22:00 0°C° 0 mm 1 mps 661 mmHg 86%
    23:00 0°C° 0 mm 1 mps 662 mmHg 87%

    3 March, Tuesday

    Time Temperature Precipitation Wind Pressure Humidity
    00:00 0°C° 0 mm 1 mps 662 mmHg 89%
    01:00 0°C° 0 mm 1 mps 662 mmHg 91%
    02:00 0°C° 0.3 mm 1 mps 662 mmHg 94%
    03:00 0°C° 0.3 mm 1 mps 662 mmHg 96%
    04:00 +1°C° 0.3 mm 1 mps 662 mmHg 98%
    05:00 +1°C° 0.6 mm 1 mps 663 mmHg 97%
    06:00 +1°C° 0.6 mm 1 mps 663 mmHg 97%
    07:00 -2°C° 0.6 mm 2 mps 663 mmHg 97%
    08:00 -1°C° 0.1 mm 2 mps 664 mmHg 93%
    09:00 +1°C° 0.1 mm 2 mps 665 mmHg 90%
    10:00 +1°C° 0.1 mm 2 mps 665 mmHg 86%
    11:00 +1°C° 0.2 mm 2 mps 665 mmHg 86%
    12:00 +1°C° 0.2 mm 3 mps 666 mmHg 86%
    13:00 +1°C° 0.2 mm 3 mps 666 mmHg 85%
    14:00 0°C° 0.2 mm 3 mps 666 mmHg 84%
    15:00 +1°C° 0.2 mm 2 mps 666 mmHg 83%
    16:00 +1°C° 0.2 mm 2 mps 666 mmHg 82%
    17:00 -2°C° 0.1 mm 2 mps 666 mmHg 85%
    18:00 -1°C° 0.1 mm 1 mps 666 mmHg 89%
    19:00 -3°C° 0.1 mm 1 mps 666 mmHg 93%
    20:00 -3°C° 0 mm 1 mps 667 mmHg 92%
    21:00 -4°C° 0 mm 1 mps 667 mmHg 91%
    22:00 -4°C° 0 mm 1 mps 667 mmHg 90%
    23:00 -4°C° 0 mm 1 mps 667 mmHg 90%
    Show more